Weather History for Fort Myers Airport, FL

Change the Weather History Date:

Friday, December 14, 2012

  Actual Average Record
Temperature  
Mean Temperature 66 °F -  
Max Temperature 75 °F 76 °F 87 °F (1967)
Min Temperature 57 °F 56 °F 30 °F (1962)
Cooling Degree Days 1    
Growing Degree Days 16 (Base 50)    
Moisture  
Dew Point 58 °F    
Average Humidity 80    
Maximum Humidity 93    
Minimum Humidity 58    
Precipitation  
Precipitation 0.00 in - - ()
Sea Level Pressure  
Sea Level Pressure 30.12 in    
Wind  
Wind Speed 9 mph (NE)    
Max Wind Speed 14 mph    
Max Gust Speed 20 mph    
Visibility 10 miles    
Events      
Averages and records for this station are not official NWS values.
T = Trace of Precipitation, MM = Missing Value Source: NWS Daily Summary

Daily Weather History Graph

Daily Weather History Graph

Search for Another Location

Airport:

Trip Planner

Search our weather history database for the weather conditions in past years. The results will help you decide how hot, cold, wet, or windy it might be!

Date:

Astronomy

Dec. 14, 2012 Rise Set
Actual Time 7:07 AM EST 5:36 PM EST
Civil Twilight 6:41 AM EST 6:02 PM EST
Nautical Twilight 6:13 AM EST 6:30 PM EST
Astronomical Twilight 5:44 AM EST 6:59 PM EST
Moon 8:15 AM EST (12/14) 7:21 PM EST (12/14)
Length of Visible Light 11h 20m
Length of Day
10h 29m
Waxing Crescent, 3% of the Moon is Illuminated
Dec 14
Waxing Crescent
Dec 20
First Quarter
Dec 28
Full
Jan 4
Last Quarter
Jan 11
New

Hourly Weather History & Observations

Time (EST) Temp. Dew Point Humidity Pressure Visibility Wind Dir Wind Speed Gust Speed Precip Events Conditions
12:46 AM 59.0 °F 55.4 °F 88% 30.14 in 10.0 mi NNE 6.9 mph - N/A   Mostly Cloudy
12:53 AM 59.0 °F 55.0 °F 87% 30.14 in 10.0 mi NNE 9.2 mph - N/A   Mostly Cloudy
1:53 AM 57.0 °F 54.0 °F 89% 30.13 in 10.0 mi North 9.2 mph - N/A   Overcast
2:51 AM 57.2 °F 53.6 °F 88% 30.12 in 10.0 mi NNE 10.4 mph - N/A   Overcast
2:53 AM 57.0 °F 55.0 °F 93% 30.12 in 10.0 mi NNE 10.4 mph - N/A   Overcast
3:53 AM 57.9 °F 55.0 °F 90% 30.12 in 10.0 mi NNE 9.2 mph - N/A   Overcast
4:53 AM 57.9 °F 55.9 °F 93% 30.11 in 10.0 mi NNE 10.4 mph - N/A   Overcast
5:53 AM 59.0 °F 55.9 °F 90% 30.12 in 10.0 mi NNE 6.9 mph - N/A   Overcast
6:53 AM 59.0 °F 57.0 °F 93% 30.14 in 10.0 mi NNE 9.2 mph - N/A   Overcast
7:53 AM 60.1 °F 57.9 °F 93% 30.14 in 10.0 mi NE 8.1 mph - N/A   Overcast
8:53 AM 62.1 °F 57.9 °F 86% 30.17 in 10.0 mi NNE 11.5 mph - N/A   Overcast
9:36 AM 62.6 °F 57.2 °F 82% 30.18 in 10.0 mi NNE 11.5 mph - N/A   Overcast
9:53 AM 64.0 °F 59.0 °F 84% 30.17 in 10.0 mi NE 12.7 mph - N/A   Overcast
10:28 AM 66.2 °F 59.0 °F 78% 30.18 in 10.0 mi NE 13.8 mph - N/A   Scattered Clouds
10:53 AM 68.0 °F 60.1 °F 76% 30.16 in 10.0 mi NNE 10.4 mph - N/A   Partly Cloudy
11:53 AM 72.0 °F 61.0 °F 68% 30.14 in 10.0 mi NE 10.4 mph - N/A   Partly Cloudy
12:53 PM 75.9 °F 60.1 °F 58% 30.12 in 10.0 mi NE 12.7 mph - N/A   Partly Cloudy
1:53 PM 73.9 °F 59.0 °F 59% 30.09 in 10.0 mi NE 13.8 mph - N/A   Scattered Clouds
2:53 PM 75.0 °F 60.1 °F 60% 30.07 in 10.0 mi NE 9.2 mph - N/A   Scattered Clouds
3:53 PM 75.9 °F 60.1 °F 58% 30.06 in 10.0 mi ENE 12.7 mph 19.6 mph N/A   Scattered Clouds
4:53 PM 72.0 °F 60.1 °F 66% 30.06 in 10.0 mi NE 8.1 mph - N/A   Partly Cloudy
5:53 PM 71.1 °F 60.1 °F 68% 30.07 in 10.0 mi NNE 5.8 mph - N/A   Mostly Cloudy
6:53 PM 70.0 °F 61.0 °F 73% 30.09 in 10.0 mi NNE 4.6 mph - N/A   Mostly Cloudy
7:53 PM 66.9 °F 60.1 °F 79% 30.11 in 10.0 mi North 3.5 mph - N/A   Partly Cloudy
8:53 PM 64.9 °F 60.1 °F 84% 30.13 in 10.0 mi NNE 8.1 mph - N/A   Clear
9:53 PM 64.0 °F 59.0 °F 84% 30.13 in 10.0 mi NE 8.1 mph - N/A   Clear
10:53 PM 62.1 °F 59.0 °F 90% 30.12 in 10.0 mi NE 8.1 mph - N/A   Clear
11:53 PM 61.0 °F 59.0 °F 93% 30.09 in 10.0 mi NE 8.1 mph - N/A   Clear